Terminal Aerodrome Forecast
Issued by NWS Sioux Falls, SD

Home | Current Version | Previous Version | Graphics & Text | Print | Product List | Glossary On
Versions: 1 2 3 4 5 6 7 8 9 10 11 12 13 14 15 16 17 18 19
000
FTUS43 KFSD 271652 AAA
TAFHON
TAF AMD
KHON 271652Z 2717/2812 13008KT P6SM OVC035
     FM272100 14012KT P6SM BKN080
     FM280900 16006KT P6SM SCT100=

USA.gov is the U.S. government's official web portal to all federal, state and local government web resources and services.